Location: Forest Hills
(36.0651°N, 86.8403°W)
Time: 00:40:22
(UTC+00:00)

ARIANE 6 FM1 Upper Stage - Pass Details

Date: 29 January 2026
Orbit: 522 x 609 km, 62.0° (Epoch: 10 February)

Event Time Altitude Azimuth Distance (km) Brightness Sun altitude
Rises 23:55:36 0° 264° (W) 2,709 8.2 -9.5°
Reaches altitude 10° 23:59:23 10° 300° (WNW) 1,798 5.9 -10.3°
Maximum altitude 00:00:39 11° 319° (NW) 1,714 5.5 -10.5°
Drops below altitude 10° 00:01:55 10° 337° (NNW) 1,788 5.3 -10.8°
Sets 00:05:39 0° 13° (NNE) 2,667 5.8 -11.5°
